Theta_e
329 328 328 329 330 329 329 330 331 334 349 346 337 337 341 350 354 351 348 346 353 354 354 353 353 351 352 354 354 354 355 350 353 351 348 348 347 346 345 344 343 343 342 341
332 330 331 329 330 331 330 328 328 330 344 339 336 339 344 344 351 352 351 351 356 357 357 356 355 353 353 353 354 354 355 350 353 350 350 348 347 346 344 344 343 343 341 341
335 332 332 331 330 335 330 331 335 338 346 346 348 349 348 348 349 348 346 348 351 352 353 359 358 357 356 354 354 354 356 353 353 351 350 348 347 346 345 344 343 342 343 342
335 336 334 333 335 340 339 345 346 345 339 335 348 347 347 348 350 351 353 355 354 349 349 351 354 361 358 357 355 356 356 353 354 351 350 347 347 347 344 345 344 342 342 341
333 331 332 336 335 338 345 348 344 335 340 344 347 347 346 346 347 349 350 353 355 355 348 347 350 350 358 359 356 356 356 355 354 351 350 348 348 346 345 345 344 342 345 342
333 332 333 341 331 328 335 351 341 342 342 343 344 350 348 342 342 342 344 348 350 355 353 352 350 347 348 356 358 356 356 354 353 352 349 348 347 346 347 346 346 341 341 340
329 327 328 338 335 336 335 347 339 339 339 340 342 341 341 340 342 342 342 342 346 348 354 357 356 357 349 348 357 357 356 353 351 350 349 349 346 346 346 346 342 342 341 342
331 330 331 336 338 345 342 337 336 337 336 336 338 339 339 339 339 339 339 340 341 343 344 338 343 352 353 353 351 353 352 350 350 349 348 348 347 347 346 343 342 341 338 340
339 341 338 334 334 333 334 334 333 333 334 334 335 335 335 335 337 336 337 337 337 339 339 341 344 349 349 351 348 345 341 334 344 349 346 348 345 345 343 343 342 343 341 340
332 337 335 332 331 331 331 331 331 332 333 333 333 334 335 336 336 337 337 337 337 339 341 342 343 347 349 347 345 343 340 327 341 345 345 345 343 342 343 340 340 341 340 338
333 333 331 332 331 330 331 332 332 331 332 333 333 335 335 337 335 334 333 331 329 331 335 338 342 345 343 344 344 344 340 340 330 337 338 338 341 341 340 341 341 340 339 337
335 332 332 333 330 328 328 329 330 329 330 335 334 336 335 334 334 333 331 327 328 330 331 335 338 343 343 344 343 341 341 335 338 339 339 339 340 340 338 337 335 326 335 330
329 325 327 327 328 327 326 325 327 328 330 334 333 334 333 331 330 330 330 328 327 325 324 326 332 338 340 341 341 340 338 338 338 338 338 338 339 338 331 323 318 319 321 319
327 325 325 325 324 323 325 325 326 328 329 331 330 332 332 330 327 327 324 325 325 324 324 324 324 325 327 331 335 337 338 338 338 337 337 337 336 334 334 331 330 330 328 325
323 322 322 323 325 325 325 325 325 329 332 333 333 330 331 330 322 322 320 320 321 321 323 324 324 324 324 324 326 327 330 329 327 326 330 330 329 329 328 329 331 332 330 328
324 322 322 324 324 325 326 330 331 331 332 331 332 329 327 323 322 322 321 321 319 321 319 322 323 324 324 324 324 324 324 325 328 328 324 320 322 324 324 326 327 329 330 329
321 322 324 323 325 327 329 330 330 328 328 329 329 328 328 328 327 327 324 322 320 317 318 320 321 322 326 325 323 325 322 322 321 322 323 325 325 326 324 325 326 329 329 329
321 321 323 325 326 327 326 326 324 322 322 322 326 328 327 327 327 326 325 323 324 324 324 323 321 317 320 319 319 323 325 324 324 325 324 325 326 327 327 327 328 328 328 327
323 325 325 325 325 325 326 325 323 319 318 319 320 324 324 324 323 323 323 322 321 322 322 321 317 319 319 318 316 322 322 322 323 323 323 323 325 325 325 327 327 326 325 324
323 324 325 325 324 325 324 325 326 324 323 324 322 323 323 324 322 321 320 318 318 318 317 319 318 319 318 318 318 318 319 321 323 324 324 325 325 325 324 325 324 323 323 323
325 325 325 325 325 324 324 324 324 324 323 322 322 322 322 321 318 318 317 318 317 316 317 317 317 317 318 318 318 319 318 319 319 323 324 324 323 323 322 322 322 320 320 320
325 325 325 325 321 321 325 324 324 322 322 321 321 322 320 318 317 317 317 317 316 316 316 317 317 317 317 318 318 318 319 319 319 321 321 321 320 319 319 318 318 317 316 316
324 325 325 325 322 324 325 324 322 322 321 320 321 317 318 318 317 318 318 316 316 316 316 317 316 316 317 317 317 317 317 318 319 318 317 318 318 317 317 317 315 314 313 312
320 321 322 324 324 324 322 323 322 320 319 318 319 319 318 318 317 315 310 309 313 313 315 314 315 315 316 316 317 316 316 316 317 317 316 316 315 315 315 313 312 312 311 309
321 321 321 320 321 323 324 324 321 320 320 319 317 317 319 317 317 314 314 309 311 311 310 312 312 313 313 314 314 314 314 314 314 313 312 311 311 311 310 310 310 310 309 309
321 320 320 322 323 323 323 322 321 320 320 319 318 318 318 315 314 314 314 313 312 312 314 314 314 313 313 313 313 312 311 311 312 312 312 312 311 311 310 310 309 309 309 309
322 322 320 320 323 323 322 321 319 318 317 318 316 316 315 314 314 314 313 314 314 313 313 313 313 313 313 313 312 312 312 312 312 312 312 311 311 311 311 311 311 310 310 310
Wind_Speed
15 18 14 13 13 19 19 18 15 13 13 10 14 18 20 10 13 14 11 15 17 16 18 19 17 20 21 21 21 23 21 16 19 15 12 14 15 16 13 10 10 11 10 9
18 19 18 14 19 23 25 22 20 16 10 14 15 18 12 10 8 7 10 9 9 14 15 17 18 20 21 23 23 22 22 16 21 18 16 15 18 17 14 13 13 12 10 8
15 4 24 7 17 17 9 14 6 5 16 17 14 12 17 12 9 12 10 5 2 7 13 16 22 22 23 24 24 25 24 19 22 21 22 21 20 17 15 14 12 10 10 9
10 9 15 4 15 21 9 16 21 24 19 19 4 6 17 8 7 10 7 5 5 3 5 12 17 22 27 25 28 28 25 22 27 24 23 22 22 20 16 14 12 9 11 11
8 12 5 4 10 9 13 18 16 19 7 13 33 31 12 8 8 9 7 6 7 6 6 10 12 19 24 30 30 31 32 30 28 28 28 25 24 21 19 17 13 11 10 9
10 13 15 4 8 23 39 12 12 14 11 8 13 8 6 7 6 7 7 9 10 9 7 6 11 18 25 26 32 35 36 31 31 30 28 27 25 22 20 16 13 9 7 8
11 10 7 11 15 24 6 5 12 13 13 13 10 10 7 7 10 11 10 11 12 11 8 11 16 12 20 24 29 32 34 32 33 30 28 26 23 22 19 16 10 11 10 7
11 14 10 18 5 6 6 12 13 13 13 13 12 13 12 11 11 12 14 14 15 16 18 16 14 17 18 19 25 30 32 36 36 33 28 23 21 20 18 14 19 14 7 4
6 4 11 21 20 12 9 9 10 9 9 12 12 12 11 11 12 14 16 18 18 19 23 22 18 18 17 21 27 25 24 66 29 28 23 18 18 15 14 18 13 7 4 3
5 9 12 15 16 14 10 9 8 9 10 11 11 11 12 12 12 14 17 18 17 16 20 22 18 17 16 21 21 17 23 34 10 6 12 16 16 14 17 9 9 11 10 7
9 10 13 13 10 10 9 8 8 9 9 10 9 9 9 9 11 13 16 20 22 21 20 20 15 15 19 16 13 11 11 24 10 19 17 17 13 10 13 15 15 10 9 8
3 4 11 14 9 9 9 8 7 9 9 8 9 5 6 7 8 11 16 22 25 25 21 21 16 13 8 9 10 10 12 15 16 17 16 13 16 19 18 13 11 10 12 8
1 9 4 6 4 7 9 8 7 8 7 4 5 4 6 7 8 9 12 16 21 25 26 28 18 10 14 12 8 8 8 7 8 10 13 14 16 12 6 9 8 7 6 5
7 1 3 8 7 6 5 7 7 7 5 3 3 1 3 3 6 8 14 14 16 19 24 24 20 20 20 15 6 10 12 10 10 12 14 13 14 12 10 8 9 10 10 10
3 3 0 2 3 5 7 7 10 5 4 3 3 3 2 6 12 15 14 15 16 17 19 21 20 21 21 15 11 17 12 13 17 15 20 12 11 9 5 5 9 9 13 9
4 3 6 4 3 7 7 11 10 9 5 3 4 9 10 11 6 5 5 8 16 16 14 16 17 14 14 17 18 17 11 4 5 6 13 10 8 11 12 4 6 9 5 8
7 7 7 9 9 9 18 13 10 9 9 4 8 8 6 3 1 2 7 9 7 8 10 14 17 9 11 8 7 10 12 11 12 2 1 8 6 4 6 1 6 2 9 13
6 7 5 5 6 9 8 6 5 6 7 13 7 7 5 3 4 5 6 8 12 11 9 13 18 10 9 11 8 4 4 6 10 6 8 13 7 3 3 9 5 10 11 9
2 2 5 1 4 8 7 3 2 6 4 4 2 3 5 3 5 6 10 9 7 7 14 14 10 9 12 12 6 5 3 3 2 5 8 7 5 4 2 12 15 14 13 14
5 2 1 3 5 5 5 5 3 2 3 2 7 6 5 4 5 6 9 6 7 5 6 7 6 6 9 12 8 5 5 4 1 5 3 4 9 11 10 12 20 19 18 17
10 5 4 6 6 7 4 5 2 0 2 3 4 4 5 11 6 3 4 3 6 7 5 5 3 4 7 8 11 9 7 5 6 7 8 8 12 16 19 18 15 13 13 11
7 8 9 6 5 12 2 1 2 2 2 5 4 3 4 5 4 4 6 2 5 2 2 2 5 6 8 10 10 14 12 10 12 12 11 11 14 12 11 13 14 12 11 12
5 8 10 11 10 10 4 1 4 2 2 5 4 6 0 1 2 4 2 4 3 2 4 2 9 10 12 11 10 11 13 10 12 14 12 12 13 12 12 12 11 13 12 14
4 6 8 8 8 7 5 2 0 7 7 6 3 2 2 1 0 1 3 5 6 4 3 8 11 9 8 7 5 9 8 8 8 9 9 11 12 11 12 12 11 9 11 9
5 7 7 5 5 5 2 4 5 4 1 1 2 3 3 1 1 2 2 1 7 9 9 12 11 9 9 4 5 5 5 6 8 8 8 8 8 9 9 9 9 8 8 7
7 8 5 4 5 5 5 5 5 5 6 4 3 3 3 1 2 3 3 5 3 5 1 1 2 3 4 4 5 5 6 5 5 7 7 7 7 8 7 7 7 5 5 5
13 12 7 7 6 5 7 6 7 6 9 8 5 4 5 3 4 4 4 3 4 3 1 1 2 0 1 3 3 3 3 2 5 6 4 5 5 4 4 4 4 5 1 5
Wind_Direction
282 263 283 292 284 255 238 253 253 253 129 125 85 64 347 356 120 147 172 169 160 160 168 184 183 188 193 197 199 206 209 194 199 217 221 217 206 210 216 207 199 200 218 244
278 280 287 236 239 239 244 230 241 244 141 153 161 149 122 15 106 136 160 175 171 177 188 198 202 205 206 206 204 213 211 202 203 201 211 204 210 209 214 213 212 231 229 232
274 3 293 351 248 330 235 266 354 193 78 60 60 67 67 58 50 74 72 50 149 209 217 214 211 214 215 216 212 207 204 205 208 206 204 203 204 205 209 220 224 219 233 248
282 273 249 354 321 346 104 82 59 84 102 117 227 120 91 84 81 64 52 18 24 324 258 237 231 230 222 219 218 214 212 212 210 207 208 206 211 205 211 215 225 228 241 241
291 283 305 337 6 340 32 36 49 124 271 156 181 120 93 67 56 56 39 15 351 342 305 268 247 240 239 220 223 221 219 212 211 212 205 204 206 202 205 214 216 223 226 236
284 296 298 77 0 344 278 80 28 38 62 28 4 178 84 57 36 27 10 8 351 341 311 280 270 260 248 244 231 227 223 224 215 212 207 203 208 203 205 203 207 202 230 235
241 254 249 29 175 218 349 89 39 25 31 41 58 70 63 33 27 14 2 351 349 335 313 271 257 257 256 257 245 241 232 228 226 210 200 205 202 209 208 203 188 189 221 221
241 249 236 8 31 25 39 44 45 28 20 21 24 31 28 19 8 4 359 352 346 334 323 317 314 275 277 272 261 252 247 241 225 204 191 194 201 205 206 199 189 205 204 216
15 74 87 77 99 82 68 61 46 33 21 19 18 9 5 0 6 355 351 345 338 328 321 326 337 326 298 284 270 261 267 295 263 182 166 185 207 213 192 195 195 183 215 164
326 111 89 98 81 82 80 67 48 31 19 16 10 8 7 1 1 359 354 346 323 308 322 326 327 316 308 298 297 258 241 267 189 159 172 195 206 205 220 208 176 191 205 202
313 86 130 91 71 76 77 63 34 17 17 5 12 12 8 20 13 13 11 3 356 337 315 313 304 299 311 315 300 258 206 196 207 212 212 218 194 203 193 205 207 201 179 181
261 347 0 92 75 45 43 28 17 357 359 36 26 28 31 39 29 25 17 10 16 14 356 348 322 295 277 286 293 238 232 196 203 203 195 193 190 202 212 215 210 217 206 207
136 23 20 42 78 33 8 351 346 334 329 6 12 25 64 57 45 34 28 26 25 18 20 25 35 340 288 273 272 237 229 231 208 203 205 209 203 193 200 171 159 143 114 107
117 252 238 49 355 348 346 342 318 292 281 277 243 109 111 40 32 51 59 49 31 21 22 25 21 30 40 39 338 250 252 221 221 206 211 220 192 175 208 195 183 167 144 138
115 79 331 247 319 346 341 332 316 338 129 138 177 233 182 121 107 92 74 57 44 34 15 17 27 32 27 21 22 32 114 105 92 70 121 119 122 137 151 91 139 193 171 160
29 3 329 357 339 354 359 18 11 351 325 232 164 142 134 135 113 77 55 47 35 36 24 355 6 18 32 28 25 33 8 348 20 51 88 72 69 51 45 81 67 51 253 178
291 296 8 343 321 67 44 25 48 60 48 90 130 152 153 150 91 7 354 357 15 20 357 340 335 2 19 332 13 13 46 48 57 32 288 56 35 48 26 150 217 151 250 165
267 276 315 17 63 72 121 127 93 46 64 18 355 326 292 285 303 316 317 327 328 325 309 318 315 337 337 321 323 294 309 341 321 299 284 294 318 8 315 255 119 162 132 147
251 354 308 175 19 163 152 149 65 24 46 40 328 306 296 327 338 320 297 295 310 308 297 307 328 337 333 325 349 12 296 272 286 318 303 291 290 258 166 107 101 115 120 125
291 346 210 215 172 218 132 165 146 47 48 351 338 320 315 1 325 312 305 318 334 308 322 341 11 347 331 338 1 347 254 219 125 101 54 71 90 93 92 98 109 109 106 115
15 21 310 274 354 122 142 129 83 19 35 336 323 331 329 292 322 318 319 340 321 334 21 26 356 353 7 48 38 44 61 78 119 94 101 111 108 121 113 109 107 102 97 103
345 332 351 329 216 300 216 96 8 344 291 281 289 307 288 299 328 345 2 321 321 42 39 358 311 102 88 69 52 52 59 78 103 101 101 114 103 104 101 98 99 100 103 104
304 307 307 317 303 311 329 281 40 214 303 322 293 268 91 316 304 324 294 342 49 60 57 73 109 115 97 77 54 47 60 70 75 79 89 100 98 95 102 109 105 106 103 102
341 320 310 310 306 309 305 193 233 303 301 302 229 200 201 358 262 140 29 76 117 89 114 123 107 85 87 97 137 98 103 107 119 115 117 113 108 109 106 108 110 112 104 94
335 321 299 297 300 299 250 210 248 283 165 186 17 149 159 77 274 147 142 85 103 89 93 106 103 92 78 89 91 100 92 100 101 103 106 112 112 110 109 111 113 111 111 110
301 304 311 300 295 272 244 220 253 222 214 233 214 217 194 178 178 131 146 146 135 145 176 276 33 79 102 109 109 106 109 110 102 119 123 120 118 121 123 117 116 122 127 122
269 254 274 248 224 227 232 233 230 226 239 219 202 195 206 203 191 183 188 179 168 172 192 145 167 358 243 165 131 149 149 144 153 152 154 151 158 159 163 170 167 167 201 187